Terug naar catalogus

STARLINK-1255

ActiefCommunicatieVLEO
NORAD 45399·PAYLOAD·🇺🇸 United States

Gelanceerd Mar 18, 2020 vanaf Cape Canaveral Space Force Station

Loading…

Volgende Passages (komende 24 uur)

TLE

VersSource: CelesTrak SupGP

Epoch: Sep 14, 2026, 20:41 UTC

1 45399C 20019AR  26257.86229167  .00123150  00000+0  76774-3 0  2577
2 45399  53.0307 253.5585 0005878  65.1513 268.8771 15.76136669    12

Volg STARLINK-1255 in realtime met AllMySat

Download on the App Store